Location: Moscow
(55.7500°N, 37.5830°E)
Time: 07:51:43
(UTC+03:00)

A-11 Canister half - Pass Details

Date: 03 December 2021
Orbit: 1524 x 1684 km, 47.3° (Epoch: 17 January)

Event Time Altitude Azimuth Distance (km) Brightness Sun altitude
Exits shadow 04:44:10 46° 211° (SSW) 2,131 9.4 -31.4°
Maximum altitude 04:46:22 53° 175° (S) 1,974 9.4 -31.1°
Drops below altitude 10° 04:55:48 10° 102° (ESE) 3,852 11.9 -29.8°
Sets 04:58:58 0° 98° (E) 4,817 12.8 -29.4°
